[[{"header":{"parameterUnit":"m.s-1","parameterCategory":1,"la1":30.2991,"la2":30.254,"lo1":-89.0895,"lo2":-89.0444,"dy":0.0017,"dx":0.0017,"nx":28,"ny":28,"refTime":"2024-03-09T03:00:00:Z","depth":0,"parameterNumber":2,"parameterNumberName":"U-component_of_WINDS"},"data":[0,0,0,0,0,0,0,0,0,0,0,0,0,0,0,0,0,0,0,0,0,0,0,0,0,0,0,0,0,0,0,0,0,0,0,0,0,0,0,0,0,0,0,0,0,0,0,0,0,0,0,0,0,0,0,0,0,0,1.9074,1.9075,0,1.9159,1.916,1.9161,1.9169,1.9168,1.9168,1.9167,1.9253,1.9256,1.9259,0,0,0,0,0,0,0,0,0,0,0,0,0,1.8921,1.8923,1.9074,1.9075,1.9076,1.9159,1.916,1.9161,1.9169,1.9168,1.9167,1.9166,1.9252,1.9256,1.926,0,0,0,0,0,0,0,0,0,0,0,0,0,1.8994,1.8924,1.9074,1.909,1.9093,1.9158,1.916,1.9161,1.917,1.9168,1.9167,1.9166,1.9251,1.9255,1.926,1.9315,0,0,1.9274,1.9276,0,0,0,0,0,0,0,0,1.899,1.9,1.9087,1.9089,1.9092,1.9152,1.9137,1.9213,1.917,1.914,1.9167,1.9165,1.9221,1.9228,1.9246,1.9319,1.9323,1.9275,1.9278,1.928,1.9281,0,0,0,0,0,0,0,1.8985,1.8997,1.9108,1.9088,1.9091,1.9094,1.9103,1.9152,1.9187,1.9143,1.9144,1.9154,1.9222,1.9242,1.9249,1.9324,1.9275,1.9279,1.9282,1.9284,1.9448,1.9449,0,0,0,0,0,0,1.8977,1.8992,1.9105,1.911,1.9037,1.9098,1.9108,1.9134,1.9186,1.9193,1.9155,1.9154,1.9235,1.9243,1.9252,1.932,1.928,1.9284,1.9287,1.9446,1.9448,1.945,0,0,0,0,0,0,1.8974,1.8987,1.9101,1.9051,1.9066,1.9102,1.9131,1.9137,1.9157,1.9195,1.9202,1.9169,1.9234,1.9245,1.93,1.9323,1.9286,1.929,1.9444,1.9447,1.9449,1.9457,0,0,0,0,0,0,1.8969,1.8986,1.9007,1.9052,1.9069,1.9148,1.9133,1.9139,1.9165,1.9164,1.921,1.9216,1.9234,1.9293,1.9304,1.9329,1.9294,1.9442,1.9445,1.9448,1.9455,1.9459,1.9463,0,0,0,0,0,1.8964,1.9005,1.9008,1.9021,1.9096,1.9149,1.9159,1.9178,1.9167,1.9188,1.9213,1.9215,1.9319,1.9298,1.9311,1.9338,1.9441,1.9444,1.9448,1.9453,1.9458,1.9463,0,0,0,0,0,0,1.8961,1.9011,1.9015,1.9072,1.9106,1.915,1.9178,1.9183,1.9221,1.9219,1.9241,1.9252,1.9305,1.9327,1.9303,1.9394,1.9379,1.9385,1.9378,1.9384,1.9388,1.9381,1.9298,0,0,0,0,0,1.8968,1.9007,1.9048,1.9095,1.9112,1.9142,1.9166,1.9178,1.9214,1.9229,1.9258,1.9293,1.9334,1.936,1.9399,1.9458,1.9469,1.9483,1.9487,1.9491,1.9496,1.9529,1.9536,1.9461,1.9461,1.9461,0,0,1.8981,1.9013,1.9036,1.9096,1.9123,1.9164,1.9154,1.9197,1.9227,1.9235,1.9289,1.9311,1.9352,1.9409,1.9436,1.9429,1.9519,1.9495,1.9497,1.9501,1.9534,1.9541,1.9547,1.9463,1.9463,1.9463,0,0,1.9026,1.9054,1.9096,1.9125,1.9167,1.9187,1.9197,1.9241,1.9257,1.9311,1.9318,1.9354,1.9424,1.9453,1.9477,1.9534,1.9537,1.9546,1.9568,1.9601,1.9607,1.9612,1.9633,1.964,1.9551,1.9551,1.9551,0,1.9037,1.9097,1.9117,1.916,1.9186,1.9196,1.924,1.9266,1.9319,1.9337,1.9329,1.9417,1.9445,1.951,1.9524,1.9543,1.9556,1.9541,1.9604,1.961,1.9615,1.9635,1.9643,1.9552,1.9552,1.9552,1.9552,0,1.9109,1.9151,1.918,1.9232,1.9262,1.9304,1.9331,1.9359,1.9369,1.939,1.9445,1.9479,1.9526,1.9543,1.9552,1.9609,1.9604,1.96,1.9584,1.9623,1.9642,1.965,1.9553,1.9553,1.9553,1.9553,0,0,1.9154,1.9217,1.9227,1.9251,1.93,1.9333,1.9376,1.9423,1.9446,1.9483,1.9521,1.958,1.9577,1.9604,1.9617,1.9646,1.969,1.9638,1.964,1.9647,1.9755,1.9758,1.9766,1.9692,1.9694,1.9695,1.9752,0,1.9204,1.9282,1.9302,1.9369,1.9408,1.9419,1.9457,1.9491,1.9512,1.9549,1.9573,1.9614,1.9607,1.9624,1.9652,1.9678,1.9712,1.9674,1.9728,1.9729,1.9717,1.9776,1.9779,1.9831,1.9759,1.9761,1.9762,0,1.9273,1.9312,1.9382,1.9426,1.9444,1.9478,1.9522,1.9557,1.9597,1.961,1.9641,1.9652,1.9699,1.9681,1.9746,1.972,1.9744,1.976,1.9762,1.9768,1.9748,1.9783,1.9847,1.9855,1.9774,1.9773,1.9772,0,1.9299,1.9369,1.942,1.944,1.9493,1.9517,1.954,1.9578,1.9605,1.9644,1.9662,1.9706,1.973,1.9764,1.9787,1.9772,1.985,1.9835,1.9863,1.9862,1.9879,1.9877,1.9947,1.9894,1.9894,1.9893,1.9893,0,1.9353,1.9396,1.9433,1.9464,1.9513,1.9536,1.9583,1.9607,1.9641,1.9678,1.969,1.9724,1.9752,1.979,1.9808,1.986,1.9871,1.9883,1.9887,1.9882,1.988,1.9897,1.9894,1.9895,1.9895,1.9895,1.9894,0,1.9389,1.9416,1.9473,1.9519,1.9531,1.9565,1.9604,1.9636,1.9658,1.9704,1.9716,1.9751,1.9797,1.9823,1.9881,1.9893,1.995,1.9953,1.9937,1.9939,1.9966,1.9963,2.0049,2.0062,2.0,2.0,2.0001,0,1.9422,1.9455,1.9505,1.953,1.9554,1.9595,1.9623,1.9647,1.9676,1.9724,1.9749,1.9796,1.9835,1.9908,1.9938,1.9983,1.9986,2.0014,1.9993,1.9987,1.9987,1.9985,1.9989,2.0017,2.0018,2.0018,2.0018,0,1.9477,1.9489,1.9528,1.9573,1.9606,1.9642,1.9678,1.9698,1.9729,1.976,1.9808,1.9838,1.9897,1.9944,1.9991,2.0015,2.0022,2.0025,2.0034,2.0028,2.0018,2.0024,1.9947,2.0022,2.0022,2.0022,2.0022,2.0021,1.9513,1.9544,1.9583,1.9627,1.9657,1.9691,1.9723,1.9749,1.9789,1.9839,1.9851,1.9901,1.9941,2.0005,2.0031,2.0071,2.0066,2.0079,2.0082,2.0085,2.0086,2.0012,2.0079,2.0079,2.0079,2.0079,2.0079,0,1.9569,1.9595,1.9636,1.9686,1.9721,1.9725,1.9765,1.9794,1.9838,1.9874,1.9912,1.9967,2.0012,2.0047,2.0094,2.0119,2.0123,2.013,2.0129,2.0134,2.0087,2.0075,2.0126,2.0126,2.0126,2.0126,2.0126,2.0126,1.9602,1.9654,1.9671,1.9738,1.9764,1.9813,1.9836,1.9867,1.9897,1.9957,1.9995,2.0018,2.0054,2.0103,2.0145,2.0155,2.0171,2.0178,2.0187,2.0143,2.0137,2.0133,2.0121,2.0181,2.0181,2.0231,2.0232,2.0232]},{"header":{"parameterUnit":"m.s-1","parameterCategory":1,"la1":30.2991,"la2":30.254,"lo1":-89.0895,"lo2":-89.0444,"dy":0.0017,"dx":0.0017,"nx":28,"ny":28,"refTime":"2024-03-09T03:00:00:Z","depth":0,"parameterNumber":3,"parameterNumberName":"V-component_of_WINDS"},"data":[0,0,0,0,0,0,0,0,0,0,0,0,0,0,0,0,0,0,0,0,0,0,0,0,0,0,0,0,0,0,0,0,0,0,0,0,0,0,0,0,0,0,0,0,0,0,0,0,0,0,0,0,0,0,0,0,0,0,-6.11,-6.1102,0,-6.1304,-6.1306,-6.1308,-6.129,-6.1287,-6.1284,-6.1281,-6.1488,-6.1496,-6.1504,0,0,0,0,0,0,0,0,0,0,0,0,0,-6.0695,-6.0702,-6.11,-6.1102,-6.1105,-6.1303,-6.1306,-6.1309,-6.129,-6.1287,-6.1283,-6.1279,-6.1485,-6.1495,-6.1505,0,0,0,0,0,0,0,0,0,0,0,0,0,-6.0882,-6.0705,-6.1099,-6.112,-6.1123,-6.1303,-6.1306,-6.131,-6.1291,-6.1286,-6.1282,-6.1277,-6.1482,-6.1494,-6.1507,-6.1679,0,0,-6.1545,-6.1551,0,0,0,0,0,0,0,0,-6.0871,-6.0897,-6.1114,-6.1119,-6.1123,-6.1267,-6.1239,-6.1433,-6.1292,-6.1227,-6.1281,-6.1275,-6.1418,-6.1436,-6.1484,-6.1688,-6.1697,-6.1546,-6.1554,-6.1559,-6.1563,0,0,0,0,0,0,0,-6.0858,-6.0888,-6.118,-6.1117,-6.1123,-6.1119,-6.114,-6.1276,-6.1346,-6.1233,-6.1232,-6.1256,-6.1419,-6.1472,-6.1489,-6.17,-6.1546,-6.1557,-6.1565,-6.157,-6.2058,-6.2063,0,0,0,0,0,0,-6.0841,-6.0877,-6.1174,-6.1187,-6.0983,-6.113,-6.1154,-6.1225,-6.1345,-6.1359,-6.126,-6.1255,-6.1453,-6.1474,-6.1496,-6.1707,-6.1559,-6.1571,-6.1578,-6.2053,-6.2059,-6.2065,0,0,0,0,0,0,-6.0832,-6.0867,-6.1166,-6.1032,-6.1069,-6.1142,-6.1222,-6.1232,-6.1284,-6.1366,-6.1378,-6.1301,-6.145,-6.1478,-6.1634,-6.1714,-6.1577,-6.1588,-6.2046,-6.2055,-6.2062,-6.213,0,0,0,0,0,0,-6.082,-6.0864,-6.093,-6.1033,-6.1077,-6.1301,-6.1227,-6.1239,-6.1306,-6.1301,-6.1407,-6.142,-6.1448,-6.1615,-6.1647,-6.1729,-6.1598,-6.204,-6.205,-6.206,-6.212,-6.2139,-6.2155,0,0,0,0,0,-6.0806,-6.094,-6.0934,-6.097,-6.1161,-6.1305,-6.133,-6.136,-6.1313,-6.138,-6.1433,-6.1417,-6.17,-6.1631,-6.1666,-6.1754,-6.2035,-6.2047,-6.2059,-6.2113,-6.2135,-6.2154,0,0,0,0,0,0,-6.0844,-6.0954,-6.0948,-6.112,-6.1203,-6.1302,-6.1387,-6.1382,-6.1481,-6.1472,-6.1504,-6.1529,-6.1686,-6.1735,-6.1657,-6.1928,-6.1861,-6.1881,-6.189,-6.1912,-6.1929,-6.1914,-6.1609,0,0,0,0,0,-6.0872,-6.0981,-6.1071,-6.1214,-6.1256,-6.1315,-6.1379,-6.1395,-6.1482,-6.1518,-6.1581,-6.1667,-6.1776,-6.1846,-6.195,-6.2127,-6.2151,-6.2205,-6.2222,-6.2235,-6.2252,-6.2352,-6.2377,-6.2105,-6.2105,-6.2104,0,0,-6.0932,-6.1006,-6.1072,-6.1223,-6.129,-6.1402,-6.1345,-6.1465,-6.1548,-6.1536,-6.1688,-6.1737,-6.1835,-6.2003,-6.208,-6.2049,-6.2333,-6.2251,-6.2261,-6.2271,-6.2367,-6.2392,-6.2415,-6.2113,-6.2111,-6.211,0,0,-6.1098,-6.1164,-6.1292,-6.136,-6.1462,-6.1501,-6.1531,-6.1631,-6.1664,-6.1817,-6.1811,-6.191,-6.2096,-6.2166,-6.2226,-6.2421,-6.2411,-6.2454,-6.2544,-6.264,-6.2662,-6.2681,-6.2752,-6.2777,-6.247,-6.2471,-6.2471,0,-6.116,-6.1328,-6.1357,-6.148,-6.1547,-6.1542,-6.1672,-6.1736,-6.1867,-6.1914,-6.1877,-6.2112,-6.2176,-6.2362,-6.241,-6.2458,-6.2495,-6.2443,-6.2656,-6.2676,-6.2694,-6.2763,-6.2789,-6.2475,-6.2475,-6.2474,-6.2474,0,-6.1399,-6.1516,-6.1607,-6.1735,-6.1812,-6.1937,-6.1986,-6.2061,-6.2071,-6.2113,-6.227,-6.2348,-6.2469,-6.2513,-6.2523,-6.2701,-6.2679,-6.2649,-6.2583,-6.2724,-6.2789,-6.2816,-6.2482,-6.248,-6.2479,-6.2478,0,0,-6.1595,-6.1739,-6.1772,-6.1831,-6.1943,-6.2035,-6.216,-6.2279,-6.2343,-6.2434,-6.2541,-6.2699,-6.2672,-6.2741,-6.2758,-6.2843,-6.2995,-6.2803,-6.2806,-6.2837,-6.3197,-6.3221,-6.325,-6.2988,-6.2993,-6.2997,-6.319,0,-6.1774,-6.1997,-6.2028,-6.2225,-6.2335,-6.2332,-6.2441,-6.2523,-6.2566,-6.2665,-6.2712,-6.2825,-6.278,-6.2822,-6.2905,-6.2959,-6.3068,-6.2945,-6.3089,-6.3094,-6.3066,-6.3284,-6.3309,-6.3486,-6.3215,-6.322,-6.3223,0,-6.2013,-6.2112,-6.232,-6.242,-6.2467,-6.2565,-6.2678,-6.2772,-6.2865,-6.289,-6.2968,-6.2975,-6.3106,-6.3034,-6.3214,-6.313,-6.3191,-6.3226,-6.3234,-6.325,-6.3168,-6.3307,-6.3544,-6.3571,-6.3263,-6.3259,-6.3256,0,-6.2138,-6.2322,-6.2471,-6.2521,-6.2641,-6.271,-6.2763,-6.2851,-6.2922,-6.302,-6.3066,-6.3177,-6.3239,-6.3325,-6.3363,-6.3307,-6.3543,-6.3473,-6.3569,-6.3568,-6.3619,-6.3616,-6.3871,-6.3656,-6.3655,-6.3655,-6.3654,0,-6.2335,-6.2463,-6.2529,-6.2621,-6.2765,-6.2799,-6.2941,-6.2991,-6.307,-6.3172,-6.3175,-6.3271,-6.3315,-6.3417,-6.3448,-6.3594,-6.3621,-6.3646,-6.3653,-6.3647,-6.3644,-6.3688,-6.3677,-6.3662,-6.366,-6.3659,-6.3658,0,-6.2499,-6.2548,-6.2711,-6.2811,-6.284,-6.2941,-6.3028,-6.3117,-6.3159,-6.3289,-6.3321,-6.3388,-6.3509,-6.3555,-6.3702,-6.3723,-6.3893,-6.3889,-6.3862,-6.3864,-6.3958,-6.3949,-6.4251,-6.4294,-6.4049,-6.4051,-6.4053,0,-6.2623,-6.2722,-6.2833,-6.2902,-6.2958,-6.3069,-6.3141,-6.3179,-6.3254,-6.3368,-6.3444,-6.3565,-6.3664,-6.3857,-6.3919,-6.4032,-6.4032,-6.413,-6.4049,-6.4041,-6.4036,-6.403,-6.4041,-6.4145,-6.4148,-6.415,-6.4152,0,-6.2838,-6.2858,-6.2962,-6.3076,-6.3162,-6.3253,-6.3341,-6.3397,-6.3448,-6.3533,-6.3657,-6.3734,-6.3886,-6.4006,-6.4123,-6.4177,-6.4174,-6.4177,-6.4205,-6.4201,-6.4182,-6.4196,-6.3905,-6.417,-6.4168,-6.4167,-6.4166,-6.4165,-6.2987,-6.3076,-6.3169,-6.3285,-6.3356,-6.3439,-6.3528,-6.3583,-6.3687,-6.3814,-6.383,-6.3964,-6.4055,-6.4212,-6.4272,-6.4377,-6.4351,-6.4392,-6.4403,-6.4413,-6.442,-6.4164,-6.4398,-6.4398,-6.4398,-6.4397,-6.4397,0,-6.3204,-6.3264,-6.3371,-6.3495,-6.3587,-6.3576,-6.3674,-6.3751,-6.387,-6.3955,-6.4053,-6.4197,-6.4315,-6.4386,-6.4504,-6.4575,-6.4577,-6.4605,-6.4601,-6.4614,-6.4436,-6.44,-6.4602,-6.4602,-6.4602,-6.4602,-6.4602,-6.4602,-6.3328,-6.3478,-6.3509,-6.3694,-6.3753,-6.3886,-6.3943,-6.402,-6.4088,-6.4249,-6.4347,-6.4393,-6.4474,-6.4598,-6.4706,-6.4724,-6.4768,-6.4799,-6.4815,-6.4647,-6.4626,-6.4606,-6.4573,-6.4808,-6.4808,-6.4985,-6.4986,-6.4987]}]]